Showing default

HUYGENS, 55093

Orbit data source: Space-Track

HUYGENS, 55093 is a Norwegian payload satellite in SSO that was launched on Tue, 03 Jan 2023 UTC via an FALCON 9 launch vehicle from the Air Force Eastern Test Range (AFETR). Payload-class satellites include a variety of spacecraft equipped with specific instruments for various scientific and technological missions. These include communications satellites like Starlink; space stations such as the ISS; scientific satellites like the Hubble; Earth observation satellites from companies like Planet Labs, Umbra, and HawkEye 360; GPS; miniature CubeSats for education and research; and military/defense satellites.

Loading next visibility...
Identifier
55093, 2023-001CN
Orbit
SSO
Country
Flag of NONO / NOR
Related business
Manufacturer
NanoAvionics
Mission
Operational Civil Sigint
Bus & Motor
CUBESAT 6U, Unknown motor
Mass
10 kg wet, ~10 kg dry
Launch date (UTC)
2023-01-03 (4 years ago)
Launch vehicle
FALCON 9
Launch site
Air Force Eastern Test Range (AFETR)
Object type
Payload
Rocket body
Debris
Shape & HBR
Box + 2 Pan, 0.2 m
Radar Cross Section
0.080 m², Medium (>0.1 m² and < 1m²)

Expand to show TLE details & history
Last TLE update: 16 hours ago

TLE from 16 hours ago
0 HUYGENS
1 55093U 23001CN  26255.30344579  .00007455  00000-0  18009-3 0  9995
2 55093  97.3172 322.6557 0010586 123.8645 236.3611 15.41410056205783
Epoch: 2026-09-12T07:16Z
TLE epoch observation values (Epoch: 2026-09-12T07:16:57.716Z)
Latitude
0.00002°
Longitude
-137.89917°
Altitude
449.074 km
Speed
7.641 km/s
True Right ascension
21h 30m 37s
True Declination
0° 00' 00"
Sunlit
Object was in full shadow at epoch
Visualization orbit readout
Latitude
Unknown
Longitude
Unknown
Altitude
Unknown
Speed
Unknown
Apparent Right ascension
Unknown
Apparent Declination
Unknown
Sunlit
N/A
Visualization observer readout
Local Sidereal Time
15:23:12
Azimuth
Unknown
Elevation
Unknown
Doppler factor
Unknown
Orbital elements
Apogee altitude
446.097 km
Perigee altitude
431.664 km
Semi-major axis
6,817.017 km
Eccentricity
0.00106
Inclination
97.3172°
RAAN
322.6557°
Arg. of periapsis
123.8645°
True anomaly
236.26018°
Mean anomaly
236.3611°
Eccentric anomaly
236.31063°
Mean motion
3.85613 °/min
Orbital period
93.36 mins
BSTAR
0.00018009
Loading maneuver chart data...
Computing Atmospheric mass density...

Documentation

Showing up to 5 results
|